JES3031 SABE-SAVC

Flight info

Callsign JES3031
Flight time N/A
Altitude 36000
Route PTA8 GBE UT694 IREMO UP664 GATUD GATUD2U
Aircraft A320/M-SDE3FGHIRWY/LB1

Departure

Time 2026-05-01 14:51
Airport Aeroparque Jorge Newbery (SABE)

Arrival

Time N/A
Airport General Enrique Mosconi International Airport (SAVC)
Time Latitude Longitude Altitude Speed Heading
2026-05-01 14:10 -34.55824 -58.41409 18 ft 0 kts 207°
2026-05-01 14:13 -34.55823 -58.41409 26 ft 0 kts 207°
2026-05-01 14:38 -34.55817 -58.41405 30 ft 3 kts 207°
2026-05-01 14:39 -34.55799 -58.41394 26 ft 3 kts 219°
2026-05-01 14:39 -34.55788 -58.41379 27 ft 3 kts 277°
2026-05-01 14:39 -34.55795 -58.41361 31 ft 3 kts 304°
2026-05-01 14:39 -34.55806 -58.41342 30 ft 1 kts 304°
2026-05-01 14:40 -34.55806 -58.41341 30 ft 0 kts 304°
2026-05-01 14:44 -34.55806 -58.41342 30 ft 0 kts 304°
2026-05-01 14:45 -34.55800 -58.41351 26 ft 2 kts 304°
2026-05-01 14:45 -34.55769 -58.41408 26 ft 6 kts 304°
2026-05-01 14:45 -34.55742 -58.41456 29 ft 8 kts 301°
2026-05-01 14:46 -34.55721 -58.41522 26 ft 9 kts 274°
2026-05-01 14:46 -34.55814 -58.41566 27 ft 9 kts 127°
2026-05-01 14:46 -34.55844 -58.41492 27 ft 10 kts 116°
2026-05-01 14:47 -34.55879 -58.41410 27 ft 12 kts 118°
2026-05-01 14:47 -34.55919 -58.41318 25 ft 13 kts 117°
2026-05-01 14:47 -34.55972 -58.41224 28 ft 14 kts 127°
2026-05-01 14:48 -34.56103 -58.41015 27 ft 17 kts 127°
2026-05-01 14:48 -34.56167 -58.40895 27 ft 13 kts 116°
2026-05-01 14:48 -34.56203 -58.40774 27 ft 12 kts 125°
2026-05-01 14:49 -34.56316 -58.40578 26 ft 15 kts 133°
2026-05-01 14:49 -34.56471 -58.40408 27 ft 14 kts 139°
2026-05-01 14:50 -34.56553 -58.40416 25 ft 7 kts 240°
2026-05-01 14:50 -34.56233 -58.41025 29 ft 110 kts 304°
2026-05-01 14:51 -34.55686 -58.42004 43 ft 166 kts 305°
2026-05-01 14:51 -34.54228 -58.44293 1536 ft 177 kts 322°
2026-05-01 14:52 -34.51509 -58.44025 1963 ft 247 kts 29°
2026-05-01 14:52 -34.50228 -58.42535 2468 ft 270 kts 58°
2026-05-01 14:52 -34.50040 -58.37921 4019 ft 286 kts 103°
2026-05-01 14:53 -34.50607 -58.35603 4842 ft 289 kts 108°
2026-05-01 14:53 -34.51276 -58.33287 5606 ft 293 kts 109°
2026-05-01 14:53 -34.51958 -58.30927 6323 ft 299 kts 108°
2026-05-01 14:53 -34.52619 -58.28509 7005 ft 305 kts 106°
2026-05-01 14:54 -34.53395 -58.26096 7672 ft 311 kts 117°
2026-05-01 14:54 -34.54655 -58.23937 8357 ft 317 kts 133°
2026-05-01 14:54 -34.56353 -58.22213 9017 ft 321 kts 148°
2026-05-01 14:54 -34.58248 -58.20734 9681 ft 327 kts 149°
2026-05-01 14:55 -34.60186 -58.19227 10170 ft 338 kts 149°
2026-05-01 14:55 -34.62234 -58.17635 10318 ft 361 kts 149°
2026-05-01 14:55 -34.64518 -58.16230 10526 ft 374 kts 166°
2026-05-01 14:55 -34.67084 -58.15788 11036 ft 371 kts 187°
2026-05-01 14:56 -34.69602 -58.16286 11639 ft 368 kts 198°
2026-05-01 14:56 -34.72103 -58.16980 12288 ft 369 kts 198°
2026-05-01 14:56 -34.74609 -58.17690 12929 ft 371 kts 198°
2026-05-01 14:56 -34.77126 -58.18408 13547 ft 373 kts 198°
2026-05-01 14:57 -34.79661 -58.19130 14111 ft 375 kts 198°
2026-05-01 14:57 -34.84776 -58.20586 15174 ft 380 kts 198°
2026-05-01 14:57 -34.87356 -58.21317 15695 ft 382 kts 198°
2026-05-01 14:58 -34.89927 -58.22046 16205 ft 385 kts 198°
2026-05-01 14:58 -34.92542 -58.22788 16732 ft 387 kts 199°
2026-05-01 14:58 -34.95177 -58.23538 17251 ft 390 kts 199°
2026-05-01 14:58 -34.97824 -58.24293 17777 ft 392 kts 199°
2026-05-01 14:59 -35.00528 -58.25064 18299 ft 395 kts 199°
2026-05-01 14:59 -35.03181 -58.25821 18776 ft 398 kts 199°
2026-05-01 14:59 -35.05885 -58.26592 19246 ft 401 kts 199°
2026-05-01 14:59 -35.08604 -58.27367 19700 ft 404 kts 199°
2026-05-01 15:00 -35.14116 -58.28938 20588 ft 409 kts 199°
2026-05-01 15:00 -35.16896 -58.29730 21009 ft 412 kts 199°
2026-05-01 15:00 -35.19696 -58.30530 21434 ft 415 kts 199°
2026-05-01 15:01 -35.22521 -58.31339 21837 ft 417 kts 199°
2026-05-01 15:01 -35.25351 -58.32150 22234 ft 420 kts 199°
2026-05-01 15:01 -35.28205 -58.32969 22630 ft 423 kts 200°
2026-05-01 15:01 -35.31085 -58.33795 23025 ft 426 kts 200°
2026-05-01 15:02 -35.33971 -58.34620 23431 ft 428 kts 199°
2026-05-01 15:02 -35.35900 -58.35172 23661 ft 430 kts 200°
2026-05-01 15:02 -35.39805 -58.36290 24120 ft 432 kts 200°
2026-05-01 15:02 -35.42743 -58.37135 24458 ft 434 kts 200°
2026-05-01 15:03 -35.45696 -58.37981 24800 ft 436 kts 200°
2026-05-01 15:03 -35.48653 -58.38831 25146 ft 438 kts 200°
2026-05-01 15:03 -35.51626 -58.39687 25467 ft 440 kts 200°
2026-05-01 15:03 -35.54616 -58.40552 25799 ft 442 kts 200°
2026-05-01 15:04 -35.57609 -58.41418 26130 ft 443 kts 200°
2026-05-01 15:04 -35.60615 -58.42285 26454 ft 445 kts 200°
2026-05-01 15:04 -35.63643 -58.43158 26781 ft 447 kts 200°
2026-05-01 15:04 -35.66671 -58.44036 27109 ft 449 kts 200°
2026-05-01 15:05 -35.69718 -58.44920 27431 ft 451 kts 200°
2026-05-01 15:05 -35.72770 -58.45841 27756 ft 450 kts 203°
2026-05-01 15:05 -35.75684 -58.47166 28075 ft 444 kts 212°
2026-05-01 15:05 -35.78368 -58.48974 28502 ft 436 kts 219°
2026-05-01 15:06 -35.80934 -58.50956 28968 ft 435 kts 219°
2026-05-01 15:06 -35.83496 -58.52926 29429 ft 434 kts 219°
2026-05-01 15:06 -35.86016 -58.54862 29892 ft 433 kts 219°
2026-05-01 15:06 -35.88566 -58.56823 30283 ft 431 kts 219°
2026-05-01 15:07 -35.91111 -58.58779 30668 ft 431 kts 219°
2026-05-01 15:07 -35.93653 -58.60732 31034 ft 430 kts 219°
2026-05-01 15:07 -35.96186 -58.62686 31405 ft 429 kts 219°
2026-05-01 15:07 -35.98716 -58.64640 31780 ft 428 kts 219°
2026-05-01 15:08 -36.01235 -58.66588 32158 ft 428 kts 220°
2026-05-01 15:08 -36.03758 -58.68541 32536 ft 427 kts 220°
2026-05-01 15:08 -36.06279 -58.70491 32918 ft 426 kts 220°
2026-05-01 15:08 -36.08787 -58.72433 33296 ft 426 kts 220°
2026-05-01 15:09 -36.11295 -58.74376 33669 ft 425 kts 220°
2026-05-01 15:09 -36.13801 -58.76319 34007 ft 424 kts 220°
2026-05-01 15:09 -36.16299 -58.78256 34309 ft 423 kts 220°
2026-05-01 15:09 -36.18790 -58.80187 34598 ft 423 kts 220°
2026-05-01 15:10 -36.21279 -58.82118 34886 ft 422 kts 220°
2026-05-01 15:10 -36.26239 -58.85978 35447 ft 420 kts 221°
2026-05-01 15:10 -36.28713 -58.87907 35721 ft 419 kts 221°
2026-05-01 15:11 -36.31180 -58.89832 35873 ft 420 kts 221°
2026-05-01 15:11 -36.36180 -58.93754 35909 ft 431 kts 221°
2026-05-01 15:12 -36.41251 -58.97725 35906 ft 436 kts 221°
2026-05-01 15:12 -36.48958 -59.03736 35906 ft 436 kts 221°
2026-05-01 15:14 -36.61767 -59.13795 35921 ft 435 kts 221°
2026-05-01 15:14 -36.69448 -59.19837 35931 ft 435 kts 221°
2026-05-01 15:15 -36.79648 -59.27928 35937 ft 434 kts 221°
2026-05-01 15:16 -36.89854 -59.36011 35940 ft 434 kts 221°
2026-05-01 15:18 -37.02582 -59.46127 35926 ft 433 kts 221°
2026-05-01 15:19 -37.12729 -59.54240 35927 ft 433 kts 221°
2026-05-01 15:19 -37.20318 -59.60351 35925 ft 431 kts 223°
2026-05-01 15:20 -37.26920 -59.65951 35927 ft 430 kts 223°
2026-05-01 15:21 -37.32699 -59.70887 35928 ft 430 kts 223°
2026-05-01 15:21 -37.37619 -59.75072 35928 ft 430 kts 223°
2026-05-01 15:22 -37.44206 -59.80670 35928 ft 429 kts 223°
2026-05-01 15:22 -37.49188 -59.84909 35927 ft 429 kts 223°
2026-05-01 15:23 -37.54133 -59.89124 35931 ft 429 kts 224°
2026-05-01 15:23 -37.59040 -59.93320 35931 ft 429 kts 224°
2026-05-01 15:24 -37.64006 -59.97572 35936 ft 429 kts 224°
2026-05-01 15:24 -37.68936 -60.01804 35936 ft 428 kts 224°
2026-05-01 15:25 -37.73833 -60.06006 35936 ft 428 kts 224°
2026-05-01 15:25 -37.78759 -60.10234 35943 ft 428 kts 224°
2026-05-01 15:26 -37.83687 -60.14479 35942 ft 428 kts 224°
2026-05-01 15:26 -37.88591 -60.18720 35943 ft 427 kts 224°
2026-05-01 15:27 -37.93504 -60.22971 35945 ft 427 kts 224°
2026-05-01 15:28 -38.00863 -60.29333 35939 ft 427 kts 225°
2026-05-01 15:28 -38.05770 -60.33593 35947 ft 427 kts 225°
2026-05-01 15:29 -38.13114 -60.39978 35954 ft 426 kts 225°
2026-05-01 15:30 -38.22956 -60.48403 35956 ft 427 kts 224°
2026-05-01 15:31 -38.37771 -60.60952 35955 ft 425 kts 225°
2026-05-01 15:32 -38.47596 -60.69367 35955 ft 425 kts 225°
2026-05-01 15:34 -38.62310 -60.81970 35959 ft 424 kts 225°